| time (UTC) | temp F | wind direction | speed MPH | gust MPH | rain 1hr in | rain 24hr in | rain mn in | humidity % | barometer mb |
| 20260510173033 | 57 | 219 | 5.0 | 16.0 | 0.00 | 0.32 | 0.24 | 66 | 1012.1 |
| 20260510172512 | 57 | 360 | 2.0 | 14.0 | 0.00 | 0.32 | 0.24 | 65 | 1012.0 |
| 20260510172013 | 57 | 203 | 5.0 | 13.0 | 0.00 | 0.32 | 0.24 | 66 | 1012.0 |
| 20260510171536 | 57 | 236 | 5.0 | 13.0 | 0.00 | 0.32 | 0.24 | 65 | 1012.0 |
| 20260510171012 | 57 | 236 | 2.0 | 13.0 | 0.00 | 0.32 | 0.24 | 67 | 1011.9 |
| 20260510170514 | 56 | 235 | 4.0 | 13.0 | 0.00 | 0.32 | 0.24 | 67 | 1011.8 |
| 20260510170030 | 56 | 240 | 6.0 | 14.0 | 0.00 | 0.32 | 0.24 | 65 | 1011.9 |
| 20260510165517 | 56 | 247 | 6.0 | 15.0 | 0.00 | 0.32 | 0.24 | 65 | 1011.8 |
| 20260510165018 | 56 | 241 | 4.0 | 15.0 | 0.00 | 0.32 | 0.24 | 64 | 1011.9 |
| 20260510164532 | 57 | 214 | 5.0 | 17.0 | 0.00 | 0.32 | 0.24 | 65 | 1012.1 |
| 20260510164014 | 57 | 207 | 6.0 | 17.0 | 0.00 | 0.32 | 0.24 | 65 | 1012.2 |
| 20260510163514 | 58 | 261 | 6.0 | 19.0 | 0.00 | 0.32 | 0.24 | 64 | 1012.2 |
| 20260510163032 | 58 | 252 | 7.0 | 20.0 | 0.00 | 0.32 | 0.24 | 63 | 1012.1 |
| 20260510162514 | 58 | 0 | 8.0 | 20.0 | 0.00 | 0.32 | 0.24 | 64 | 1011.9 |
| 20260510162018 | 58 | 202 | 4.0 | 15.0 | 0.00 | 0.32 | 0.24 | 66 | 1011.8 |
| 20260510161531 | 58 | 233 | 6.0 | 16.0 | 0.00 | 0.32 | 0.24 | 66 | 1011.9 |
| 20260510161015 | 59 | 254 | 7.0 | 16.0 | 0.00 | 0.32 | 0.24 | 66 | 1011.9 |
| 20260510160516 | 59 | 227 | 7.0 | 16.0 | 0.00 | 0.32 | 0.24 | 66 | 1011.9 |
| 20260510160036 | 59 | 232 | 4.0 | 12.0 | 0.00 | 0.32 | 0.24 | 67 | 1011.8 |
| 20260510155515 | 59 | 240 | 1.0 | 14.0 | 0.00 | 0.33 | 0.24 | 69 | 1011.8 |
| 20260510155012 | 58 | 0 | 2.0 | 20.0 | 0.00 | 0.33 | 0.24 | 70 | 1011.8 |
| 20260510154533 | 58 | 212 | 6.0 | 20.0 | 0.00 | 0.33 | 0.24 | 68 | 1011.9 |
| 20260510154014 | 58 | 290 | 9.0 | 20.0 | 0.00 | 0.33 | 0.24 | 68 | 1011.9 |
| 20260510153514 | 58 | 224 | 5.0 | 18.0 | 0.00 | 0.33 | 0.24 | 67 | 1011.9 |
| 20260510153029 | 58 | 202 | 7.0 | 18.0 | 0.00 | 0.33 | 0.24 | 67 | 1012.1 |
| 20260510152513 | 57 | 255 | 7.0 | 18.0 | 0.00 | 0.33 | 0.24 | 73 | 1012.1 |
| 20260510152014 | 57 | 257 | 6.0 | 16.0 | 0.00 | 0.33 | 0.24 | 71 | 1012.2 |
| 20260510151539 | 57 | 229 | 6.0 | 16.0 | 0.00 | 0.33 | 0.24 | 74 | 1012.1 |
| 20260510151014 | 57 | 232 | 7.0 | 16.0 | 0.00 | 0.33 | 0.24 | 75 | 1012.1 |
| 20260510150514 | 57 | 217 | 6.0 | 15.0 | 0.00 | 0.33 | 0.24 | 75 | 1012.4 |
| 20260510150037 | 57 | 205 | 8.0 | 15.0 | 0.00 | 0.33 | 0.24 | 74 | 1012.3 |
| 20260510145515 | 57 | 236 | 3.0 | 15.0 | 0.00 | 0.33 | 0.24 | 77 | 1012.4 |
| 20260510145015 | 56 | 235 | 6.0 | 15.0 | 0.00 | 0.33 | 0.24 | 78 | 1012.7 |
| 20260510144534 | 56 | 231 | 3.0 | 15.0 | 0.00 | 0.33 | 0.24 | 79 | 1012.4 |
| 20260510144015 | 55 | 254 | 4.0 | 15.0 | 0.00 | 0.33 | 0.24 | 79 | 1012.4 |
| 20260510143513 | 55 | 211 | 6.0 | 15.0 | 0.00 | 0.33 | 0.24 | 78 | 1012.5 |
| 20260510143037 | 55 | 252 | 5.0 | 14.0 | 0.00 | 0.33 | 0.24 | 79 | 1012.5 |
| 20260510142517 | 55 | 219 | 6.0 | 14.0 | 0.00 | 0.33 | 0.24 | 79 | 1012.5 |
| 20260510142018 | 55 | 226 | 4.0 | 15.0 | 0.00 | 0.33 | 0.24 | 81 | 1012.5 |
| 20260510141532 | 55 | 208 | 5.0 | 15.0 | 0.00 | 0.33 | 0.24 | 79 | 1012.5 |
| 20260510141014 | 56 | 209 | 6.0 | 15.0 | 0.00 | 0.33 | 0.24 | 81 | 1012.4 |
| 20260510140513 | 56 | 236 | 5.0 | 13.0 | 0.00 | 0.33 | 0.24 | 80 | 1012.5 |
| 20260510140030 | 56 | 240 | 5.0 | 13.0 | 0.00 | 0.33 | 0.24 | 81 | 1012.5 |
| 20260510135515 | 56 | 209 | 5.0 | 13.0 | 0.00 | 0.51 | 0.24 | 81 | 1012.4 |
| 20260510135016 | 56 | 229 | 5.0 | 13.0 | 0.00 | 0.51 | 0.24 | 80 | 1012.4 |
| 20260510134530 | 57 | 188 | 4.0 | 13.0 | 0.00 | 0.51 | 0.24 | 80 | 1012.4 |
| 20260510134011 | 57 | 234 | 5.0 | 12.0 | 0.00 | 0.51 | 0.24 | 81 | 1012.1 |
| 20260510133514 | 57 | 230 | 2.0 | 12.0 | 0.00 | 0.51 | 0.24 | 82 | 1012.2 |
| 20260510133031 | 57 | 184 | 5.0 | 13.0 | 0.00 | 0.51 | 0.24 | 83 | 1012.2 |
| 20260510132514 | 57 | 179 | 6.0 | 13.0 | 0.00 | 0.51 | 0.24 | 84 | 1012.2 |
| 20260510132012 | 55 | 213 | 4.0 | 12.0 | 0.00 | 0.51 | 0.24 | 88 | 1012.2 |
| 20260510131530 | 54 | 205 | 5.0 | 12.0 | 0.00 | 0.51 | 0.24 | 87 | 1012.5 |
| 20260510131015 | 53 | 225 | 3.0 | 11.0 | 0.00 | 0.51 | 0.24 | 87 | 1012.6 |
| 20260510130517 | 53 | 189 | 4.0 | 15.0 | 0.00 | 0.51 | 0.24 | 87 | 1012.5 |
| 20260510130029 | 52 | 213 | 3.0 | 15.0 | 0.00 | 0.51 | 0.24 | 86 | 1012.6 |
| 20260510125516 | 52 | 196 | 5.0 | 12.0 | 0.00 | 0.52 | 0.24 | 86 | 1012.8 |
| 20260510125014 | 53 | 194 | 4.0 | 12.0 | 0.00 | 0.52 | 0.24 | 86 | 1012.8 |
| 20260510124530 | 53 | 189 | 3.0 | 12.0 | 0.00 | 0.52 | 0.24 | 86 | 1012.9 |
| 20260510124015 | 54 | 200 | 5.0 | 12.0 | 0.00 | 0.52 | 0.24 | 86 | 1012.8 |
| 20260510123514 | 55 | 183 | 3.0 | 11.0 | 0.00 | 0.52 | 0.24 | 87 | 1012.7 |
| 20260510123030 | 55 | 238 | 3.0 | 7.0 | 0.00 | 0.52 | 0.24 | 89 | 1012.5 |
| 20260510122513 | 53 | 193 | 3.0 | 10.0 | 0.00 | 0.52 | 0.24 | 90 | 1012.6 |
| 20260510122011 | 53 | 184 | 1.0 | 13.0 | 0.00 | 0.52 | 0.24 | 88 | 1012.7 |
| 20260510121532 | 53 | 0 | 2.0 | 13.0 | 0.00 | 0.52 | 0.24 | 89 | 1012.8 |
| 20260510121014 | 54 | 186 | 3.0 | 12.0 | 0.00 | 0.52 | 0.24 | 90 | 1012.9 |
| 20260510120520 | 54 | 360 | 2.0 | 12.0 | 0.00 | 0.52 | 0.24 | 90 | 1012.9 |
| 20260510120030 | 54 | 217 | 0.0 | 11.0 | 0.00 | 0.52 | 0.24 | 91 | 1013.1 |
| 20260510115515 | 53 | 238 | 2.0 | 12.0 | 0.06 | 0.52 | 0.24 | 90 | 1013.1 |
| 20260510115018 | 52 | 247 | 2.0 | 15.0 | 0.12 | 0.52 | 0.24 | 89 | 1013.2 |
| 20260510114530 | 53 | 262 | 5.0 | 15.0 | 0.12 | 0.51 | 0.23 | 88 | 1013.3 |
| 20260510114013 | 54 | 235 | 5.0 | 15.0 | 0.13 | 0.51 | 0.23 | 89 | 1013.3 |
| 20260510113515 | 54 | 244 | 4.0 | 15.0 | 0.14 | 0.51 | 0.23 | 89 | 1013.0 |
| 20260510113030 | 54 | 238 | 5.0 | 15.0 | 0.14 | 0.51 | 0.23 | 91 | 1012.8 |
| 20260510112516 | 54 | 229 | 4.0 | 12.0 | 0.14 | 0.51 | 0.23 | 92 | 1012.5 |
| 20260510112017 | 53 | 0 | 2.0 | 5.0 | 0.14 | 0.51 | 0.23 | 92 | 1012.4 |
| 20260510111530 | 51 | 0 | 0.0 | 8.0 | 0.14 | 0.51 | 0.23 | 91 | 1012.5 |
| 20260510111011 | 50 | 0 | 0.0 | 11.0 | 0.14 | 0.51 | 0.23 | 91 | 1012.6 |
| 20260510110515 | 50 | 252 | 2.0 | 11.0 | 0.17 | 0.51 | 0.23 | 90 | 1012.8 |
| 20260510110032 | 50 | 251 | 3.0 | 16.0 | 0.18 | 0.51 | 0.22 | 88 | 1012.8 |
| 20260510105515 | 52 | 271 | 6.0 | 16.0 | 0.12 | 0.45 | 0.17 | 85 | 1013.2 |
| 20260510105016 | 54 | 245 | 5.0 | 16.0 | 0.06 | 0.39 | 0.11 | 89 | 1012.9 |
| 20260510104532 | 54 | 189 | 3.0 | 13.0 | 0.06 | 0.39 | 0.11 | 89 | 1012.1 |
| 20260510104015 | 54 | 207 | 3.0 | 12.0 | 0.04 | 0.37 | 0.09 | 89 | 1012.0 |
| 20260510103514 | 54 | 360 | 1.0 | 10.0 | 0.04 | 0.37 | 0.09 | 89 | 1011.9 |
| 20260510103031 | 54 | 182 | 3.0 | 10.0 | 0.04 | 0.37 | 0.09 | 89 | 1012.1 |
| 20260510102515 | 54 | 186 | 3.0 | 9.0 | 0.04 | 0.37 | 0.09 | 89 | 1012.1 |
| 20260510102016 | 54 | 194 | 3.0 | 11.0 | 0.04 | 0.37 | 0.09 | 89 | 1012.3 |
| 20260510101532 | 54 | 189 | 3.0 | 13.0 | 0.04 | 0.37 | 0.09 | 88 | 1012.4 |
| 20260510101015 | 54 | 360 | 4.0 | 15.0 | 0.03 | 0.37 | 0.08 | 86 | 1012.3 |
| 20260510100516 | 55 | 210 | 5.0 | 21.0 | 0.00 | 0.33 | 0.05 | 83 | 1012.4 |
| 20260510100030 | 57 | 179 | 11.0 | 21.0 | 0.00 | 0.33 | 0.04 | 78 | 1012.3 |
| 20260510095519 | 58 | 177 | 7.0 | 16.0 | 0.00 | 0.33 | 0.04 | 78 | 1012.2 |
| 20260510095017 | 59 | 162 | 5.0 | 17.0 | 0.00 | 0.33 | 0.04 | 81 | 1012.2 |
| 20260510094543 | 57 | 188 | 3.0 | 17.0 | 0.00 | 0.33 | 0.04 | 82 | 1012.2 |
| 20260510094012 | 57 | 167 | 6.0 | 17.0 | 0.00 | 0.33 | 0.04 | 81 | 1012.5 |
| 20260510093512 | 58 | 171 | 6.0 | 17.0 | 0.00 | 0.33 | 0.04 | 81 | 1012.7 |
| 20260510093034 | 58 | 198 | 3.0 | 17.0 | 0.00 | 0.33 | 0.04 | 83 | 1012.7 |
| 20260510092520 | 57 | 178 | 5.0 | 14.0 | 0.00 | 0.33 | 0.04 | 83 | 1012.7 |
| 20260510092012 | 56 | 190 | 4.0 | 14.0 | 0.00 | 0.33 | 0.04 | 84 | 1012.7 |
| 20260510091539 | 56 | 205 | 3.0 | 14.0 | 0.00 | 0.33 | 0.04 | 85 | 1012.8 |
| 20260510091013 | 56 | 209 | 4.0 | 14.0 | 0.00 | 0.33 | 0.04 | 84 | 1012.8 |
| 20260510090514 | 56 | 207 | 5.0 | 15.0 | 0.00 | 0.33 | 0.04 | 85 | 1012.6 |
| 20260510090033 | 56 | 182 | 3.0 | 15.0 | 0.00 | 0.33 | 0.04 | 85 | 1012.7 |
| 20260510085512 | 56 | 184 | 5.0 | 15.0 | 0.00 | 0.33 | 0.04 | 85 | 1012.8 |
| 20260510085014 | 55 | 150 | 3.0 | 18.0 | 0.00 | 0.33 | 0.04 | 87 | 1012.8 |
| 20260510084534 | 55 | 158 | 8.0 | 18.0 | 0.00 | 0.33 | 0.04 | 87 | 1012.8 |
| 20260510084014 | 55 | 194 | 6.0 | 12.0 | 0.00 | 0.33 | 0.04 | 88 | 1012.8 |
| 20260510083511 | 55 | 173 | 2.0 | 9.0 | 0.00 | 0.33 | 0.04 | 90 | 1012.9 |
| 20260510083047 | 54 | 167 | 2.0 | 11.0 | 0.00 | 0.33 | 0.04 | 90 | 1012.8 |
| 20260510082514 | 53 | 156 | 2.0 | 11.0 | 0.00 | 0.33 | 0.04 | 90 | 1012.8 |
| 20260510082020 | 53 | 199 | 2.0 | 7.0 | 0.00 | 0.33 | 0.04 | 91 | 1012.8 |
| 20260510081528 | 53 | 159 | 2.0 | 9.0 | 0.00 | 0.33 | 0.04 | 90 | 1012.9 |
| 20260510081015 | 53 | 178 | 2.0 | 10.0 | 0.00 | 0.33 | 0.04 | 91 | 1013.0 |
| 20260510080515 | 52 | 193 | 2.0 | 10.0 | 0.00 | 0.33 | 0.04 | 91 | 1013.2 |
| 20260510080032 | 52 | 139 | 2.0 | 9.0 | 0.00 | 0.33 | 0.04 | 91 | 1013.0 |
| 20260510075511 | 52 | 157 | 3.0 | 9.0 | 0.00 | 0.33 | 0.04 | 90 | 1013.1 |
| 20260510075011 | 52 | 173 | 4.0 | 9.0 | 0.00 | 0.33 | 0.04 | 90 | 1013.1 |
| 20260510074529 | 52 | 169 | 5.0 | 9.0 | 0.00 | 0.33 | 0.04 | 90 | 1013.2 |
| 20260510074019 | 52 | 165 | 4.0 | 9.0 | 0.00 | 0.33 | 0.04 | 90 | 1013.2 |
| 20260510073514 | 52 | 168 | 3.0 | 9.0 | 0.00 | 0.33 | 0.04 | 89 | 1013.2 |
| 20260510073035 | 52 | 186 | 3.0 | 10.0 | 0.00 | 0.33 | 0.04 | 89 | 1013.2 |
| 20260510072516 | 53 | 196 | 4.0 | 13.0 | 0.00 | 0.33 | 0.04 | 90 | 1013.1 |
| 20260510072012 | 53 | 174 | 6.0 | 13.0 | 0.00 | 0.33 | 0.04 | 90 | 1013.1 |
| 20260510071535 | 53 | 165 | 5.0 | 12.0 | 0.00 | 0.33 | 0.04 | 91 | 1013.1 |
| 20260510071019 | 52 | 178 | 4.0 | 9.0 | 0.00 | 0.33 | 0.04 | 92 | 1013.0 |
| 20260510070515 | 51 | 200 | 3.0 | 8.0 | 0.00 | 0.33 | 0.04 | 92 | 1012.9 |
| 20260510070028 | 51 | 178 | 2.0 | 9.0 | 0.00 | 0.33 | 0.04 | 92 | 1013.0 |
| 20260510065515 | 51 | 0 | 2.0 | 9.0 | 0.00 | 0.33 | 0.04 | 92 | 1012.8 |
| 20260510065015 | 50 | 165 | 2.0 | 14.0 | 0.00 | 0.33 | 0.04 | 92 | 1012.9 |
| 20260510064529 | 50 | 196 | 4.0 | 14.0 | 0.00 | 0.33 | 0.04 | 92 | 1012.8 |
| 20260510064012 | 50 | 172 | 4.0 | 12.0 | 0.00 | 0.33 | 0.04 | 92 | 1012.9 |
| 20260510063515 | 50 | 0 | 4.0 | 12.0 | 0.00 | 0.33 | 0.04 | 92 | 1012.8 |
| 20260510063030 | 50 | 195 | 3.0 | 11.0 | 0.00 | 0.33 | 0.04 | 92 | 1012.8 |
| 20260510062511 | 50 | 188 | 3.0 | 10.0 | 0.00 | 0.33 | 0.04 | 93 | 1012.8 |
| 20260510062012 | 50 | 181 | 4.0 | 10.0 | 0.00 | 0.33 | 0.04 | 93 | 1012.6 |
| 20260510061534 | 49 | 171 | 3.0 | 9.0 | 0.00 | 0.33 | 0.04 | 93 | 1012.7 |
| 20260510061012 | 49 | 189 | 3.0 | 9.0 | 0.00 | 0.33 | 0.04 | 93 | 1012.6 |
| 20260510060512 | 49 | 163 | 2.0 | 12.0 | 0.00 | 0.33 | 0.04 | 93 | 1012.7 |
| 20260510060040 | 49 | 186 | 4.0 | 12.0 | 0.00 | 0.33 | 0.04 | 93 | 1012.7 |
| 20260510055511 | 49 | 0 | 1.0 | 9.0 | 0.00 | 0.33 | 0.04 | 93 | 1012.7 |
| 20260510055013 | 48 | 174 | 1.0 | 9.0 | 0.00 | 0.33 | 0.04 | 93 | 1012.7 |
| 20260510054538 | 48 | 196 | 2.0 | 6.0 | 0.00 | 0.33 | 0.04 | 93 | 1012.8 |
| 20260510054016 | 48 | 162 | 0.0 | 7.0 | 0.00 | 0.33 | 0.04 | 93 | 1012.8 |
| 20260510053512 | 48 | 0 | 2.0 | 7.0 | 0.00 | 0.33 | 0.04 | 93 | 1012.7 |
| 20260510053030 | 48 | 159 | 2.0 | 7.0 | 0.00 | 0.33 | 0.04 | 93 | 1012.5 |
| 20260510052516 | 48 | 0 | 0.0 | 7.0 | 0.00 | 0.33 | 0.04 | 93 | 1012.5 |
| 20260510052013 | 48 | 0 | 0.0 | 7.0 | 0.00 | 0.33 | 0.04 | 93 | 1012.5 |
| 20260510051535 | 48 | 159 | 1.0 | 5.0 | 0.00 | 0.33 | 0.04 | 93 | 1012.6 |
| 20260510051012 | 47 | 0 | 0.0 | 6.0 | 0.00 | 0.33 | 0.04 | 93 | 1012.4 |
| 20260510050513 | 47 | 168 | 2.0 | 6.0 | 0.00 | 0.33 | 0.04 | 93 | 1012.6 |
| 20260510050030 | 47 | 0 | 0.0 | 5.0 | 0.00 | 0.33 | 0.04 | 93 | 1012.4 |
| 20260510045519 | 47 | 0 | 0.0 | 6.0 | 0.00 | 0.33 | 0.04 | 92 | 1012.6 |
| 20260510045012 | 47 | 0 | 1.0 | 6.0 | 0.00 | 0.33 | 0.04 | 92 | 1012.6 |
| 20260510044532 | 48 | 157 | 0.0 | 6.0 | 0.00 | 0.33 | 0.04 | 93 | 1012.6 |
| 20260510044011 | 47 | 161 | 1.0 | 6.0 | 0.00 | 0.33 | 0.04 | 93 | 1012.6 |
| 20260510043511 | 47 | 0 | 2.0 | 5.0 | 0.00 | 0.33 | 0.04 | 92 | 1012.6 |
| 20260510043033 | 47 | 146 | 0.0 | 4.0 | 0.00 | 0.33 | 0.04 | 92 | 1012.7 |
| 20260510042517 | 47 | 0 | 0.0 | 5.0 | 0.00 | 0.33 | 0.04 | 92 | 1012.5 |
| 20260510042015 | 47 | 0 | 1.0 | 6.0 | 0.00 | 0.33 | 0.04 | 92 | 1012.5 |
| 20260510041529 | 47 | 150 | 2.0 | 6.0 | 0.00 | 0.33 | 0.04 | 92 | 1012.7 |
| 20260510041014 | 47 | 143 | 3.0 | 6.0 | 0.00 | 0.33 | 0.04 | 92 | 1012.5 |
| 20260510040511 | 47 | 0 | 0.0 | 6.0 | 0.00 | 0.33 | 0.04 | 92 | 1012.6 |
| 20260510040032 | 47 | 0 | 2.0 | 6.0 | 0.00 | 0.33 | 0.04 | 92 | 1012.5 |
| 20260510035515 | 47 | 0 | 2.0 | 6.0 | 0.00 | 0.33 | 0.04 | 92 | 1012.5 |
| 20260510035012 | 48 | 162 | 0.0 | 5.0 | 0.00 | 0.33 | 0.04 | 92 | 1012.6 |
| 20260510034529 | 48 | 163 | 0.0 | 4.0 | 0.00 | 0.33 | 0.04 | 92 | 1012.7 |
| 20260510034012 | 48 | 163 | 1.0 | 5.0 | 0.00 | 0.33 | 0.04 | 92 | 1012.7 |
| 20260510033517 | 48 | 0 | 1.0 | 5.0 | 0.00 | 0.33 | 0.04 | 92 | 1012.7 |
| 20260510033030 | 48 | 167 | 1.0 | 8.0 | 0.00 | 0.33 | 0.04 | 92 | 1012.8 |
| 20260510032515 | 48 | 170 | 3.0 | 8.0 | 0.00 | 0.33 | 0.04 | 92 | 1012.9 |
| 20260510032014 | 49 | 155 | 3.0 | 8.0 | 0.00 | 0.33 | 0.04 | 92 | 1013.0 |
| 20260510031530 | 49 | 150 | 4.0 | 8.0 | 0.00 | 0.33 | 0.04 | 92 | 1013.1 |
| 20260510031014 | 49 | 0 | 2.0 | 6.0 | 0.00 | 0.33 | 0.04 | 92 | 1013.1 |
| 20260510030517 | 49 | 169 | 1.0 | 5.0 | 0.00 | 0.33 | 0.04 | 92 | 1013.2 |
| 20260510030029 | 49 | 171 | 1.0 | 5.0 | 0.00 | 0.33 | 0.04 | 92 | 1013.2 |
| 20260510025515 | 49 | 177 | 0.0 | 5.0 | 0.00 | 0.33 | 0.04 | 92 | 1013.1 |
| 20260510025014 | 49 | 0 | 0.0 | 4.0 | 0.00 | 0.33 | 0.04 | 92 | 1013.2 |
| 20260510024532 | 49 | 0 | 0.0 | 4.0 | 0.00 | 0.33 | 0.04 | 92 | 1013.3 |
| 20260510024011 | 49 | 0 | 0.0 | 5.0 | 0.00 | 0.33 | 0.04 | 92 | 1013.2 |
| 20260510023511 | 49 | 0 | 1.0 | 5.0 | 0.00 | 0.33 | 0.04 | 92 | 1013.2 |
| 20260510023030 | 49 | 0 | 1.0 | 6.0 | 0.00 | 0.33 | 0.04 | 92 | 1013.1 |
| 20260510022514 | 50 | 0 | 0.0 | 6.0 | 0.00 | 0.33 | 0.04 | 92 | 1013.3 |
| 20260510022013 | 50 | 187 | 0.0 | 3.0 | 0.00 | 0.33 | 0.04 | 92 | 1013.3 |
| 20260510021528 | 50 | 0 | 0.0 | 4.0 | 0.00 | 0.33 | 0.04 | 92 | 1013.2 |
| 20260510021015 | 50 | 186 | 1.0 | 4.0 | 0.00 | 0.33 | 0.04 | 92 | 1013.0 |
| 20260510020520 | 50 | 188 | 0.0 | 3.0 | 0.00 | 0.33 | 0.04 | 92 | 1013.3 |
| 20260510020030 | 50 | 0 | 0.0 | 3.0 | 0.00 | 0.33 | 0.04 | 92 | 1013.2 |
| 20260510015516 | 50 | 0 | 0.0 | 3.0 | 0.00 | 0.33 | 0.04 | 92 | 1013.2 |
| 20260510015016 | 50 | 188 | 0.0 | 5.0 | 0.00 | 0.33 | 0.04 | 92 | 1013.2 |
| 20260510014530 | 50 | 188 | 0.0 | 5.0 | 0.00 | 0.33 | 0.04 | 92 | 1013.1 |
| 20260510014017 | 50 | 187 | 2.0 | 5.0 | 0.00 | 0.33 | 0.04 | 92 | 1013.3 |
| 20260510013517 | 50 | 179 | 1.0 | 6.0 | 0.00 | 0.33 | 0.04 | 92 | 1013.2 |
| 20260510013032 | 50 | 0 | 1.0 | 6.0 | 0.00 | 0.33 | 0.04 | 92 | 1013.2 |
| 20260510012516 | 50 | 0 | 1.0 | 6.0 | 0.00 | 0.33 | 0.04 | 92 | 1013.3 |
| 20260510012016 | 50 | 179 | 1.0 | 6.0 | 0.00 | 0.33 | 0.04 | 92 | 1013.2 |
| 20260510011531 | 49 | 179 | 0.0 | 7.0 | 0.00 | 0.33 | 0.04 | 92 | 1013.2 |
| 20260510011013 | 49 | 0 | 1.0 | 7.0 | 0.00 | 0.33 | 0.04 | 92 | 1013.2 |
| 20260510010517 | 49 | 184 | 2.0 | 6.0 | 0.00 | 0.33 | 0.04 | 92 | 1013.4 |
| 20260510010029 | 49 | 188 | 1.0 | 6.0 | 0.00 | 0.33 | 0.04 | 92 | 1013.3 |
| 20260510005516 | 49 | 0 | 0.0 | 7.0 | 0.00 | 0.33 | 0.04 | 92 | 1013.4 |
| 20260510005015 | 49 | 175 | 2.0 | 7.0 | 0.00 | 0.33 | 0.04 | 92 | 1013.5 |
| 20260510004532 | 49 | 182 | 1.0 | 9.0 | 0.00 | 0.32 | 0.03 | 92 | 1013.5 |
| 20260510004015 | 49 | 0 | 3.0 | 9.0 | 0.00 | 0.32 | 0.03 | 92 | 1013.5 |
| 20260510003515 | 49 | 192 | 3.0 | 9.0 | 0.01 | 0.32 | 0.03 | 91 | 1013.5 |
| 20260510003038 | 49 | 0 | 3.0 | 8.0 | 0.01 | 0.32 | 0.03 | 92 | 1013.6 |
| 20260510002515 | 49 | 193 | 1.0 | 4.0 | 0.01 | 0.32 | 0.03 | 92 | 1013.5 |
| 20260510002014 | 49 | 184 | 1.0 | 5.0 | 0.01 | 0.32 | 0.03 | 91 | 1013.6 |
| 20260510001530 | 49 | 0 | 0.0 | 6.0 | 0.01 | 0.32 | 0.03 | 91 | 1013.6 |
| 20260510001014 | 49 | 200 | 1.0 | 6.0 | 0.02 | 0.32 | 0.03 | 91 | 1013.5 |
| 20260510000514 | 49 | 188 | 2.0 | 6.0 | 0.02 | 0.32 | 0.03 | 91 | 1013.5 |
| 20260510000031 | 49 | 190 | 2.0 | 6.0 | 0.03 | 0.32 | 0.03 | 91 | 1013.4 |
| 20260509235513 | 49 | 196 | 0.0 | 9.0 | 0.03 | 0.32 | 0.03 | 91 | 1013.4 |
| 20260509235016 | 49 | 188 | 1.0 | 9.0 | 0.03 | 0.32 | 0.03 | 91 | 1013.6 |
| 20260509234538 | 50 | 192 | 4.0 | 9.0 | 0.03 | 0.32 | 0.03 | 91 | 1013.6 |
| 20260509234016 | 50 | 360 | 3.0 | 9.0 | 0.03 | 0.31 | 0.03 | 91 | 1013.6 |
| 20260509233514 | 50 | 188 | 2.0 | 8.0 | 0.02 | 0.30 | 0.02 | 91 | 1013.6 |
| 20260509233036 | 50 | 197 | 1.0 | 8.0 | 0.02 | 0.30 | 0.02 | 91 | 1013.6 |
| 20260509232515 | 50 | 0 | 3.0 | 8.0 | 0.02 | 0.30 | 0.02 | 91 | 1013.7 |
| 20260509232019 | 50 | 194 | 3.0 | 8.0 | 0.02 | 0.30 | 0.02 | 91 | 1013.7 |
| 20260509231533 | 50 | 194 | 2.0 | 8.0 | 0.02 | 0.30 | 0.02 | 91 | 1013.6 |
| 20260509231016 | 50 | 0 | 0.0 | 5.0 | 0.01 | 0.29 | 0.01 | 90 | 1013.5 |
| 20260509230516 | 50 | 0 | 1.0 | 5.0 | 0.01 | 0.29 | 0.01 | 91 | 1013.4 |
| 20260509230031 | 50 | 0 | 1.0 | 5.0 | 0.00 | 0.29 | 0.00 | 91 | 1013.6 |
| 20260509225515 | 50 | 207 | 1.0 | 10.0 | 0.00 | 0.28 | 0.00 | 91 | 1013.4 |
| 20260509225014 | 50 | 222 | 2.0 | 10.0 | 0.00 | 0.28 | 0.00 | 91 | 1013.3 |
| 20260509224534 | 50 | 0 | 3.0 | 8.0 | 0.00 | 0.28 | 0.00 | 91 | 1013.6 |
| 20260509224014 | 50 | 194 | 3.0 | 7.0 | 0.00 | 0.28 | 0.00 | 91 | 1013.3 |
| 20260509223516 | 50 | 180 | 2.0 | 6.0 | 0.00 | 0.28 | 0.00 | 91 | 1013.1 |
| 20260509223034 | 50 | 175 | 2.0 | 6.0 | 0.00 | 0.28 | 0.00 | 91 | 1013.1 |
| 20260509222515 | 50 | 182 | 1.0 | 5.0 | 0.00 | 0.28 | 0.00 | 91 | 1013.0 |
| 20260509222015 | 50 | 179 | 2.0 | 5.0 | 0.00 | 0.28 | 0.00 | 91 | 1012.9 |
| 20260509221533 | 50 | 0 | 1.0 | 5.0 | 0.00 | 0.28 | 0.00 | 91 | 1012.9 |
| 20260509221016 | 50 | 195 | 1.0 | 4.0 | 0.00 | 0.28 | 0.00 | 91 | 1012.9 |
| 20260509220515 | 50 | 201 | 0.0 | 3.0 | 0.01 | 0.28 | 0.00 | 91 | 1012.9 |
| 20260509220030 | 50 | 0 | 0.0 | 3.0 | 0.03 | 0.28 | 0.00 | 91 | 1012.9 |
| 20260509215516 | 50 | 212 | 0.0 | 3.0 | 0.03 | 0.28 | 0.28 | 90 | 1012.8 |
| 20260509215015 | 50 | 0 | 0.0 | 2.0 | 0.03 | 0.28 | 0.28 | 90 | 1012.7 |
| 20260509214529 | 50 | 0 | 0.0 | 2.0 | 0.03 | 0.28 | 0.28 | 90 | 1012.8 |
| 20260509214016 | 50 | 0 | 0.0 | 9.0 | 0.03 | 0.28 | 0.28 | 90 | 1012.7 |
| 20260509213517 | 50 | 0 | 2.0 | 9.0 | 0.03 | 0.28 | 0.28 | 90 | 1012.8 |
| 20260509213030 | 50 | 0 | 0.0 | 8.0 | 0.03 | 0.27 | 0.27 | 90 | 1012.9 |
| 20260509212512 | 50 | 0 | 1.0 | 9.0 | 0.03 | 0.27 | 0.27 | 89 | 1013.1 |
| 20260509212018 | 50 | 0 | 3.0 | 9.0 | 0.03 | 0.27 | 0.27 | 89 | 1013.1 |
| 20260509211532 | 51 | 268 | 1.0 | 12.0 | 0.03 | 0.27 | 0.27 | 88 | 1013.2 |
| 20260509211016 | 51 | 210 | 3.0 | 12.0 | 0.03 | 0.27 | 0.27 | 87 | 1013.0 |
| 20260509210520 | 52 | 216 | 2.0 | 23.0 | 0.02 | 0.26 | 0.26 | 86 | 1013.1 |
| 20260509210032 | 53 | 248 | 8.0 | 23.0 | 0.00 | 0.25 | 0.25 | 84 | 1013.0 |
| 20260509205516 | 53 | 205 | 5.0 | 12.0 | 0.00 | 0.24 | 0.24 | 84 | 1012.1 |
| 20260509205016 | 53 | 159 | 5.0 | 11.0 | 0.00 | 0.24 | 0.24 | 84 | 1011.4 |
| 20260509204536 | 53 | 159 | 4.0 | 12.0 | 0.00 | 0.24 | 0.24 | 85 | 1011.4 |
| 20260509204016 | 53 | 173 | 5.0 | 12.0 | 0.00 | 0.24 | 0.24 | 85 | 1011.4 |
| 20260509203515 | 53 | 165 | 4.0 | 12.0 | 0.00 | 0.24 | 0.24 | 85 | 1011.4 |
| 20260509203039 | 53 | 160 | 4.0 | 10.0 | 0.00 | 0.24 | 0.24 | 86 | 1011.1 |
| 20260509202516 | 54 | 199 | 4.0 | 13.0 | 0.00 | 0.24 | 0.24 | 86 | 1011.1 |
| 20260509202017 | 54 | 0 | 3.0 | 13.0 | 0.00 | 0.24 | 0.24 | 86 | 1010.9 |
| 20260509201532 | 54 | 161 | 4.0 | 13.0 | 0.00 | 0.24 | 0.24 | 86 | 1010.8 |
| 20260509201020 | 54 | 157 | 4.0 | 11.0 | 0.00 | 0.24 | 0.24 | 87 | 1010.8 |
| 20260509200515 | 54 | 190 | 4.0 | 9.0 | 0.00 | 0.24 | 0.24 | 87 | 1010.8 |
| 20260509200030 | 54 | 184 | 3.0 | 8.0 | 0.00 | 0.24 | 0.24 | 88 | 1010.7 |
| 20260509195516 | 54 | 143 | 4.0 | 8.0 | 0.00 | 0.24 | 0.24 | 88 | 1010.7 |
| 20260509195015 | 54 | 142 | 3.0 | 8.0 | 0.00 | 0.24 | 0.24 | 89 | 1010.5 |
| 20260509194531 | 54 | 159 | 2.0 | 8.0 | 0.00 | 0.24 | 0.24 | 89 | 1010.6 |
| 20260509194016 | 54 | 133 | 3.0 | 8.0 | 0.00 | 0.24 | 0.24 | 89 | 1010.4 |
| 20260509193520 | 54 | 151 | 2.0 | 6.0 | 0.00 | 0.24 | 0.24 | 89 | 1010.3 |
| 20260509193040 | 54 | 145 | 2.0 | 8.0 | 0.00 | 0.24 | 0.24 | 89 | 1010.2 |
| 20260509192516 | 54 | 152 | 3.0 | 8.0 | 0.00 | 0.24 | 0.24 | 89 | 1010.2 |
| 20260509192016 | 54 | 155 | 2.0 | 9.0 | 0.00 | 0.24 | 0.24 | 89 | 1010.0 |
| 20260509191539 | 54 | 128 | 4.0 | 9.0 | 0.00 | 0.24 | 0.24 | 89 | 1009.7 |
| 20260509191016 | 54 | 127 | 4.0 | 9.0 | 0.00 | 0.24 | 0.24 | 89 | 1009.7 |
| 20260509190515 | 54 | 147 | 4.0 | 8.0 | 0.00 | 0.24 | 0.24 | 88 | 1009.8 |
| 20260509190032 | 54 | 136 | 3.0 | 7.0 | 0.00 | 0.24 | 0.24 | 88 | 1010.0 |
| 20260509185516 | 54 | 137 | 2.0 | 7.0 | 0.00 | 0.24 | 0.24 | 88 | 1010.1 |
| 20260509185017 | 54 | 153 | 3.0 | 9.0 | 0.00 | 0.24 | 0.24 | 88 | 1010.0 |
| 20260509184533 | 54 | 144 | 3.0 | 9.0 | 0.00 | 0.24 | 0.24 | 88 | 1010.0 |
| 20260509184015 | 54 | 152 | 3.0 | 8.0 | 0.00 | 0.24 | 0.24 | 87 | 1010.1 |
| 20260509183516 | 55 | 158 | 3.0 | 9.0 | 0.00 | 0.24 | 0.24 | 87 | 1010.1 |
| 20260509183033 | 55 | 117 | 3.0 | 9.0 | 0.00 | 0.24 | 0.24 | 86 | 1010.1 |
| 20260509182516 | 55 | 133 | 4.0 | 9.0 | 0.00 | 0.24 | 0.24 | 86 | 1009.9 |
| 20260509182019 | 55 | 142 | 4.0 | 11.0 | 0.00 | 0.24 | 0.24 | 86 | 1010.0 |
| 20260509181533 | 55 | 360 | 4.0 | 11.0 | 0.00 | 0.24 | 0.24 | 86 | 1010.0 |
| 20260509181016 | 55 | 142 | 4.0 | 11.0 | 0.00 | 0.24 | 0.24 | 86 | 1009.9 |
| 20260509180516 | 55 | 141 | 5.0 | 10.0 | 0.01 | 0.24 | 0.24 | 86 | 1010.0 |
| 20260509180032 | 56 | 149 | 5.0 | 9.0 | 0.03 | 0.24 | 0.24 | 86 | 1010.0 |
| 20260509175519 | 56 | 131 | 3.0 | 8.0 | 0.03 | 0.24 | 0.24 | 86 | 1009.9 |
| 20260509175017 | 56 | 138 | 3.0 | 8.0 | 0.03 | 0.24 | 0.24 | 86 | 1010.1 |
| 20260509174533 | 56 | 136 | 4.0 | 8.0 | 0.03 | 0.24 | 0.24 | 86 | 1010.2 |
| 20260509174015 | 56 | 138 | 4.0 | 13.0 | 0.03 | 0.24 | 0.24 | 87 | 1010.2 |
| 20260509173516 | 55 | 161 | 4.0 | 16.0 | 0.03 | 0.24 | 0.24 | 87 | 1010.0 |